Lid_Strength_Index
14 13 13 12 12 13 13 14 13 13 13 11 10 8 7 7 6 7 7 6 6 5 5 4 4 3 3 2 2 2 2 2 2 1 1 1 1 2 1 1 1 2 3 2
15 14 12 12 11 12 12 13 12 13 13 10 9 6 7 6 6 7 7 6 5 5 5 4 4 3 3 3 2 2 2 2 2 2 1 1 1 1 2 2 2 3 4 4
15 14 13 15 12 12 12 11 11 12 11 9 9 7 7 6 6 6 6 6 5 5 4 4 4 3 3 3 2 2 2 2 2 2 2 2 2 2 3 3 4 4 5 5
17 15 18 13 9 9 11 11 10 10 9 9 8 7 7 6 5 7 6 5 5 4 4 3 3 3 2 2 2 2 2 2 2 2 2 2 3 3 4 4 4 4 5 5
16 17 15 12 10 11 12 12 9 10 9 8 7 6 6 7 6 5 5 4 4 4 3 3 3 2 3 3 2 3 3 2 2 2 2 3 3 4 4 4 4 4 4 5
16 16 16 12 9 8 9 15 8 8 9 8 8 12 10 7 5 5 5 4 4 3 3 3 3 2 3 3 3 3 2 2 2 2 2 3 3 4 4 3 3 4 5 5
15 15 13 9 8 7 14 12 8 7 8 8 9 8 6 5 6 4 4 4 3 3 3 3 3 2 3 3 3 2 2 2 2 2 3 3 3 4 3 3 4 4 5 5
15 16 17 8 9 11 9 8 8 7 7 7 7 6 6 5 6 7 5 4 3 4 4 3 2 3 3 3 2 2 3 3 3 3 3 3 2 3 3 3 4 4 4 4
12 12 9 7 9 7 7 8 7 7 6 6 6 6 7 6 5 5 5 5 4 6 4 4 2 2 3 3 2 4 4 4 4 4 3 2 2 3 3 3 3 4 4 4
11 9 9 7 6 6 6 6 6 5 5 5 6 5 6 7 7 5 4 4 3 4 4 4 3 4 2 2 3 4 5 4 3 4 3 2 2 2 2 3 4 4 3 4
11 9 8 7 6 6 6 5 5 5 5 5 5 5 5 5 5 6 5 6 4 4 5 4 3 3 2 3 4 5 4 4 4 3 4 2 2 2 2 1 2 4 4 4
12 8 8 8 6 5 5 5 5 5 5 4 5 5 5 5 4 4 5 5 5 4 3 3 3 3 3 3 4 4 5 5 4 4 3 3 2 6 9 6 8 9 8 5
8 6 6 6 5 5 5 5 4 5 5 5 4 4 4 5 4 4 4 3 4 4 3 3 4 3 2 2 2 3 4 4 3 4 3 3 3 4 6 9 10 12 10 10
6 6 8 6 7 5 5 4 5 4 4 4 4 4 4 4 4 4 4 3 3 3 4 4 3 3 2 2 2 2 2 6 2 2 2 2 3 4 4 6 8 8 11 10
6 5 6 5 5 5 4 4 5 5 5 5 4 4 4 5 4 5 4 4 4 4 4 4 3 3 3 2 2 2 2 3 2 2 2 3 4 4 5 5 6 7 8 11
6 6 5 6 6 5 5 5 6 5 5 4 4 5 4 4 4 4 4 4 4 5 4 4 3 2 1 2 2 2 2 4 3 2 3 4 4 5 5 5 6 7 7 6
7 8 7 7 6 6 5 5 5 5 4 4 4 4 4 4 4 4 5 5 4 5 4 4 4 2 2 1 2 2 2 2 3 2 2 2 2 3 4 5 5 6 6 7
5 5 5 5 6 5 5 5 4 4 5 4 5 4 4 4 4 5 4 4 4 4 3 3 2 2 2 2 1 2 2 2 2 2 2 2 2 2 3 4 5 5 6 7
4 5 4 5 5 5 5 5 4 4 4 5 4 4 4 4 4 4 4 3 3 4 4 3 2 3 2 1 2 2 2 2 2 2 2 3 2 2 2 2 3 3 4 6
5 4 5 5 4 4 4 4 4 4 4 3 4 4 4 4 3 3 4 4 3 4 4 4 3 3 2 1 2 2 2 2 2 2 2 2 3 3 3 5 3 3 3 4
5 5 5 4 4 4 3 3 4 4 3 4 4 4 4 4 4 4 5 5 4 4 4 4 4 4 3 2 3 3 4 4 4 4 2 2 2 2 2 2 2 2 2 2
6 5 5 4 4 4 4 4 4 4 4 4 3 3 4 4 3 3 3 3 3 3 3 3 3 3 3 3 3 2 3 4 4 4 4 3 3 3 3 3 4 3 2 2
4 4 4 4 4 4 4 4 4 4 4 3 3 4 3 3 4 5 4 2 2 3 2 3 3 3 3 2 2 2 3 2 3 3 3 4 4 4 4 4 3 3 3 3
4 4 4 4 4 4 4 4 4 4 3 3 4 3 3 3 3 3 3 4 4 4 3 2 3 3 4 2 2 2 2 2 2 2 2 5 2 2 3 3 3 3 2 4
4 4 4 4 4 4 4 4 4 4 4 3 3 3 2 3 3 3 2 2 4 3 2 3 2 2 2 1 1 1 1 1 1 2 1 1 2 2 2 1 1 1 1 1
4 4 4 3 4 4 4 4 4 3 3 3 3 2 2 2 2 2 2 3 2 3 1 1 1 1 2 2 2 1 1 1 2 1 2 1 1 1 1 1 1 1 1 1
4 6 4 4 4 4 4 4 4 4 3 3 3 2 2 2 2 3 4 2 2 2 2 2 1 2 1 1 2 2 1 1 3 1 2 1 1 1 1 1 1 1 1 1